Stations météo

Publicité
Carcassonne, France (7635): Température de l'air & dewpoint: 18.05.2017 11:00:00 - 24.05.2017 11:00:00 (CEST)Carcassonne, France (7635): Température de l'air 5cm: 18.05.2017 11:00:00 - 24.05.2017 11:00:00 (CEST)Carcassonne, France (7635): Température de l'air -20cm & Température de l'air -100cm: 18.05.2017 11:00:00 - 24.05.2017 11:00:00 (CEST)Carcassonne, France (7635): Vitesse du vent & gusts: 18.05.2017 11:00:00 - 24.05.2017 11:00:00 (CEST)Carcassonne, France (7635): Direction du vent: 18.05.2017 11:00:00 - 24.05.2017 11:00:00 (CEST)Carcassonne, France (7635): reduced air pressure: 18.05.2017 11:00:00 - 24.05.2017 11:00:00 (CEST)Carcassonne, France (7635): visibility: 18.05.2017 11:00:00 - 24.05.2017 11:00:00 (CEST)Carcassonne, France (7635): Ensoleillement: 18.05.2017 11:00:00 - 24.05.2017 11:00:00 (CEST)Carcassonne, France (7635): Quantités de précipitations: 18.05.2017 11:00:00 - 24.05.2017 11:00:00 (CEST)
Date & Time tt [°C] td [°C] tt 5cm [°C] tt -20cm [°C] tt -100cm [°C] ff [km/h] ff [knt] fx [km/h] fx [knt] dd ppp [hPa] vv [km] sd [min] rr [mm]
24.05.2017 11:00:00 20,5 15,1 22,4 19,1 17,7 16 9 34 18 W 1021,3 17 60 0,0
24.05.2017 10:00:00 18,9 14,4 20,6 19,0 17,7 20 11 32 17 W 1021,5 19 60 0,0
24.05.2017 09:00:00 17,9 14,4 18,1 19,1 17,7 14 7 24 13 W 1021,9 20 60 0,0
24.05.2017 08:00:00 16,5 13,8 14,7 19,2 17,7 13 7 21 12 WSW 1022,1 20 60 0,0
24.05.2017 07:00:00 14,6 13,1 12,8 19,4 17,7 9 5 17 9 SW 1021,9 11 17 0,0
24.05.2017 06:00:00 14,1 12,7 13,1 19,6 17,6 8 5 16 9 SW 1022,1 9 0 0,0
24.05.2017 05:00:00 14,7 12,9 13,9 19,7 17,6 10 5 21 11 WSW 1022,0 11 0 0,0
24.05.2017 04:00:00 14,8 13,0 14,0 19,9 17,7 12 6 23 13 WSW 1022,5 13 0 0,0
24.05.2017 03:00:00 15,8 13,1 15,2 20,0 17,6 13 7 26 14 W 1022,8 20 0 0,0
24.05.2017 02:00:00 16,3 13,4 15,9 20,2 17,6 16 8 33 18 W 1023,2 24 0 0,0
24.05.2017 01:00:00 16,4 13,5 15,7 20,4 17,6 19 10 41 22 W 1023,3 24 0 0,0
24.05.2017 00:00:00 16,2 13,5 15,7 20,6 17,6 20 11 37 20 W 1023,3 24 0 0,0
23.05.2017 23:00:00 16,5 13,6 16,1 20,8 17,7 19 11 34 18 W 1023,4 23 0 0,0
23.05.2017 22:00:00 16,8 13,7 16,5 20,9 17,6 19 10 32 17 WNW 1023,2 26 0 0,0
23.05.2017 21:00:00 16,9 13,6 16,8 21,0 17,6 19 10 44 24 WNW 1022,8 29 0 0,0
23.05.2017 20:00:00 17,3 13,8 17,6 20,9 17,6 23 12 43 23 W 1022,3 25 0 0,0
23.05.2017 19:00:00 17,9 14,0 - - - 24 13 44 24 W 1022,1 19 - 0,0
23.05.2017 18:00:00 18,5 13,8 19,8 20,7 17,6 24 13 41 22 W 1022,3 24 10 0,0
23.05.2017 17:00:00 18,5 14,4 19,5 20,5 17,6 23 13 41 22 W 1022,6 20 3 0,0
23.05.2017 16:00:00 18,5 14,0 20,0 20,2 17,6 25 14 40 22 WNW 1023,0 20 7 0,0
23.05.2017 15:00:00 18,7 14,2 19,4 19,9 17,6 21 11 40 21 W 1023,3 22 20 0,0
23.05.2017 14:00:00 17,7 13,8 18,2 19,8 17,6 26 14 38 20 WNW 1023,7 20 6 0,0
23.05.2017 13:00:00 17,8 14,1 18,7 19,6 17,6 22 12 40 21 WNW 1023,8 23 18 0,0
23.05.2017 12:00:00 16,7 14,0 17,5 19,5 17,5 24 13 40 21 W 1024,0 22 1 0,0
23.05.2017 11:00:00 16,7 13,8 17,6 19,5 17,6 23 12 42 23 W 1023,9 13 37 0,0
23.05.2017 10:00:00 16,0 13,7 15,6 19,5 17,5 26 14 39 21 WNW 1023,6 14 19 0,0
23.05.2017 09:00:00 15,2 13,4 15,5 19,7 17,6 20 11 39 21 WNW 1023,4 15 0 0,0
23.05.2017 08:00:00 15,1 13,6 14,3 19,8 17,5 25 13 37 20 WNW 1022,9 13 4 0,0
23.05.2017 07:00:00 14,5 13,7 14,2 20,0 17,5 21 12 38 21 W 1022,5 4,1 0 0,0
23.05.2017 06:00:00 14,7 13,9 14,4 20,1 17,5 22 12 39 21 W 1022,0 3,6 0 0,0
23.05.2017 05:00:00 15,2 14,1 14,9 20,3 17,6 22 12 40 22 W 1021,5 4,2 0 0,0
23.05.2017 04:00:00 16,0 14,5 15,7 20,5 17,5 24 13 41 22 W 1021,0 7 0 0,0
23.05.2017 03:00:00 17,1 15,6 16,6 20,6 17,5 22 12 38 20 W 1020,1 20 0 0,0
23.05.2017 02:00:00 17,0 15,5 15,4 20,8 17,5 18 10 35 19 W 1019,8 32 0 0,0
23.05.2017 01:00:00 16,4 15,1 15,1 21,0 17,5 6 3 13 7 WNW 1019,9 10 0 0,2
23.05.2017 00:00:00 17,0 15,7 16,1 21,2 17,5 4 2 7 4 WNW 1019,8 10 0 0,4
22.05.2017 23:00:00 17,1 15,3 16,0 21,4 17,5 4 2 6 3 WNW 1019,9 17 0 0,0
22.05.2017 22:00:00 17,8 14,7 16,5 21,5 17,5 - - 9 5 - 1019,7 18 0 0,0
22.05.2017 21:00:00 18,9 14,6 18,4 21,6 17,5 7 4 19 10 E 1018,6 43 0 0,0
22.05.2017 20:00:00 20,1 14,5 20,0 21,6 17,5 13 7 24 13 E 1017,7 42 0 0,0
22.05.2017 19:00:00 20,8 13,7 21,2 21,4 17,5 16 9 33 18 E 1017,6 33 4 0,0
22.05.2017 18:00:00 22,4 14,3 23,0 21,1 17,5 22 12 35 19 E 1017,3 19 48 0,0
22.05.2017 17:00:00 22,4 14,5 23,3 20,7 17,5 22 12 40 22 E 1017,4 14 50 0,0
22.05.2017 16:00:00 21,9 13,5 25,1 20,1 17,5 27 15 42 23 E 1017,7 15 57 0,0
22.05.2017 15:00:00 21,9 14,5 23,8 19,6 17,5 22 12 40 22 E 1017,9 20 50 0,0
22.05.2017 14:00:00 21,6 14,3 21,8 19,2 17,5 19 11 41 22 ESE 1018,0 20 45 0,0
22.05.2017 13:00:00 20,7 14,1 22,7 18,8 17,5 21 11 37 20 E 1018,2 36 48 0,0
22.05.2017 12:00:00 19,0 13,0 20,2 18,8 17,5 21 11 35 19 E 1018,6 50 17 0,0
22.05.2017 11:00:00 17,7 11,0 16,9 18,8 17,5 13 7 29 16 ESE 1018,8 60 0 0,0
22.05.2017 10:00:00 16,3 9,5 16,5 18,9 17,5 11 6 44 24 SE 1018,9 43 0 0,0
22.05.2017 09:00:00 16,2 8,9 15,7 19,0 17,4 26 14 43 23 E 1017,8 34 5 0,0
22.05.2017 08:00:00 15,7 8,9 15,1 19,1 17,5 23 13 40 22 E 1017,1 51 0 0,0
22.05.2017 07:00:00 15,2 10,0 14,8 19,3 17,5 27 15 44 24 E 1016,8 60 0 0,0
22.05.2017 06:00:00 15,3 9,0 15,1 19,5 17,5 25 13 38 20 E 1016,2 60 0 0,0
22.05.2017 05:00:00 15,2 8,9 14,9 19,7 17,5 20 11 37 20 E 1016,0 60 0 0,0
22.05.2017 04:00:00 15,0 10,6 14,1 20,0 17,5 19 11 37 20 E 1016,5 60 0 0,0
22.05.2017 03:00:00 14,4 11,2 14,0 20,2 17,5 16 9 41 22 E 1016,7 60 0 0,0
22.05.2017 02:00:00 14,5 10,7 14,1 20,5 17,5 20 11 36 20 E 1017,1 60 0 0,0
22.05.2017 01:00:00 15,3 6,0 14,6 20,8 17,5 19 10 35 19 E 1017,4 60 0 0,0
22.05.2017 00:00:00 16,8 5,7 16,1 21,1 17,5 19 10 35 19 E 1017,5 60 0 0,0
21.05.2017 23:00:00 17,4 7,4 16,5 21,4 17,5 21 11 35 19 E 1017,7 60 0 0,0
21.05.2017 22:00:00 19,0 6,8 17,8 21,6 17,5 13 7 30 16 E 1017,7 60 0 0,0
21.05.2017 21:00:00 20,2 5,8 19,1 21,8 17,5 19 11 31 17 E 1017,4 60 34 0,0
21.05.2017 20:00:00 23,0 4,5 23,1 21,8 17,5 13 7 37 20 ESE 1017,4 34 54 0,0
21.05.2017 19:00:00 23,9 5,7 24,7 21,7 17,5 21 11 41 22 E 1017,1 18 54 0,0
21.05.2017 18:00:00 24,5 6,7 27,0 21,3 17,5 29 16 41 22 E 1017,4 19 60 0,0
21.05.2017 17:00:00 25,4 8,0 28,0 20,8 17,5 25 14 38 20 E 1017,5 20 58 0,0
21.05.2017 16:00:00 25,5 8,9 29,8 20,1 17,5 21 11 32 17 E 1018,3 26 60 0,0
21.05.2017 15:00:00 24,9 8,0 30,0 19,3 17,5 13 7 24 13 E 1018,9 33 60 0,0
21.05.2017 14:00:00 24,2 5,5 28,8 18,7 17,5 11 6 18 10 ENE 1019,6 42 60 0,0
21.05.2017 13:00:00 22,4 7,0 27,3 18,0 17,5 5 3 19 11 ENE 1020,7 49 60 0,0
21.05.2017 12:00:00 21,2 8,5 25,4 17,5 17,5 4 2 11 6 SSE 1021,4 50 60 0,0
21.05.2017 11:00:00 18,8 8,7 22,8 17,3 17,5 3 2 8 4 N 1022,0 59 60 0,0
21.05.2017 10:00:00 16,2 10,5 18,2 17,2 17,5 2 1 6 4 NW 1022,6 20 60 0,0
21.05.2017 09:00:00 13,2 9,3 14,6 17,3 17,5 3 2 8 4 SW 1023,3 52 60 0,0
21.05.2017 08:00:00 10,1 8,7 5,2 17,5 17,6 3 2 6 3 SW 1023,6 48 48 0,0
21.05.2017 07:00:00 6,4 5,5 3,8 17,8 17,5 3 2 4 2 SW 1023,9 19 0 0,0
21.05.2017 06:00:00 6,7 5,3 4,5 18,1 17,5 3 1 11 6 WSW 1023,9 54 0 0,0
21.05.2017 05:00:00 7,8 6,9 5,0 18,3 17,6 6 4 9 5 S 1023,9 60 0 0,0
21.05.2017 04:00:00 7,4 5,7 5,3 18,6 17,6 3 2 10 6 W 1024,5 36 0 0,0
21.05.2017 03:00:00 9,4 7,2 8,4 18,9 17,6 7 4 13 7 S 1025,0 60 0 0,0
21.05.2017 02:00:00 10,0 7,8 6,7 19,2 17,6 8 4 12 6 S 1025,5 60 0 0,0
21.05.2017 01:00:00 10,3 7,4 7,1 19,5 17,6 3 2 9 5 W 1025,8 60 0 0,0
21.05.2017 00:00:00 11,3 7,2 8,0 19,7 17,6 5 3 9 5 W 1025,7 41 0 0,0
20.05.2017 23:00:00 12,5 7,6 8,9 20,0 17,6 5 3 11 6 WNW 1025,7 51 0 0,0
20.05.2017 22:00:00 14,1 7,6 11,9 20,2 17,6 9 5 16 9 W 1025,1 60 0 0,0
20.05.2017 21:00:00 16,3 7,2 14,9 20,3 17,6 11 6 28 15 WNW 1024,6 60 39 0,0
20.05.2017 20:00:00 18,7 6,8 18,9 20,3 17,6 20 11 41 22 WNW 1024,0 18 60 0,0
20.05.2017 19:00:00 20,0 6,3 21,7 20,1 17,6 25 14 47 26 WNW 1023,7 12 60 0,0
20.05.2017 18:00:00 20,5 7,5 20,7 19,8 17,6 26 14 50 27 WNW 1023,5 14 56 0,0
20.05.2017 17:00:00 20,2 7,2 - - - 28 15 50 27 WNW 1023,7 18 - -
20.05.2017 16:00:00 18,7 8,1 20,1 19,1 17,7 29 16 47 25 WNW 1024,1 30 42 0,0
20.05.2017 15:00:00 18,4 10,2 17,2 18,8 17,7 21 11 39 21 WNW 1024,2 57 25 0,0
20.05.2017 14:00:00 16,9 9,8 18,4 18,4 17,7 17 9 31 17 WNW 1024,6 27 24 0,0
20.05.2017 13:00:00 16,1 8,8 16,4 18,1 17,7 19 10 37 20 WNW 1024,9 26 18 0,0
20.05.2017 12:00:00 15,1 7,9 16,9 17,8 17,7 23 13 41 22 W 1025,2 26 21 0,0
20.05.2017 11:00:00 15,7 6,9 18,3 17,5 17,7 21 11 35 19 WNW 1024,5 22 56 0,0
20.05.2017 10:00:00 14,8 8,1 15,6 17,5 17,7 19 10 32 18 W 1024,4 26 60 0,0
20.05.2017 09:00:00 12,5 7,2 12,4 17,7 17,7 16 8 25 14 W 1024,5 39 60 0,0
20.05.2017 08:00:00 10,6 7,1 9,0 17,8 17,7 11 6 18 10 W 1024,1 60 60 0,0
20.05.2017 07:00:00 9,0 6,8 8,0 18,0 17,7 9 5 20 11 W 1023,9 51 14 0,0
20.05.2017 06:00:00 9,4 6,8 8,5 18,3 17,7 12 7 21 11 W 1023,4 60 0 0,0
20.05.2017 05:00:00 9,1 7,0 7,8 18,6 17,7 9 5 16 8 W 1023,2 60 0 0,0
20.05.2017 04:00:00 8,9 6,7 7,9 18,9 17,7 8 5 17 9 W 1023,3 60 0 0,0
20.05.2017 03:00:00 9,1 7,2 8,1 19,1 17,7 9 5 16 9 W 1023,2 60 0 0,0
20.05.2017 02:00:00 9,7 7,1 8,7 19,4 17,7 8 4 19 10 W 1023,2 60 0 0,0
20.05.2017 01:00:00 10,4 7,3 9,3 19,7 17,7 8 5 18 10 W 1023,4 60 0 0,0
20.05.2017 00:00:00 11,2 7,1 10,1 20,0 17,7 9 5 23 13 W 1023,6 60 0 0,0
19.05.2017 23:00:00 11,8 7,9 10,9 20,2 17,8 13 7 22 12 W 1023,4 60 0 0,0
19.05.2017 22:00:00 12,6 7,7 11,7 20,5 17,8 10 5 24 13 W 1022,5 60 0 0,0
19.05.2017 21:00:00 14,4 7,7 14,0 20,6 17,8 17 9 39 21 WNW 1021,7 60 42 0,0
19.05.2017 20:00:00 15,7 7,7 15,8 20,7 17,8 25 13 45 24 NW 1020,9 37 3 0,0
19.05.2017 19:00:00 16,4 8,1 16,6 20,6 17,8 28 15 52 28 WNW 1020,2 31 35 0,0
19.05.2017 18:00:00 18,2 7,3 18,3 20,3 17,8 30 16 45 24 WNW 1019,3 22 42 0,0
19.05.2017 17:00:00 18,7 8,1 19,0 19,9 17,8 27 15 44 24 NW 1018,9 14 49 0,0
19.05.2017 16:00:00 18,8 9,6 19,5 19,4 17,8 25 13 43 23 NW 1019,0 18 60 0,0
19.05.2017 15:00:00 18,1 8,6 18,2 18,8 17,8 26 14 40 22 WNW 1019,7 25 43 0,0
19.05.2017 14:00:00 17,1 7,7 17,3 18,3 17,8 23 12 40 22 WNW 1019,9 28 46 0,0
19.05.2017 13:00:00 16,4 8,4 16,3 17,9 17,8 25 14 40 22 WNW 1020,3 29 42 0,0
19.05.2017 12:00:00 15,8 8,3 14,0 17,6 17,8 26 14 41 22 WNW 1020,5 30 38 0,0
19.05.2017 11:00:00 13,4 7,6 14,3 17,4 17,8 25 13 38 21 WNW 1020,6 32 45 0,0
19.05.2017 10:00:00 13,3 8,8 13,8 17,4 17,8 26 14 45 24 WNW 1020,5 19 54 0,0
19.05.2017 09:00:00 11,4 9,1 10,5 17,5 17,8 18 10 27 14 WNW 1020,5 23 33 0,0
19.05.2017 08:00:00 9,8 8,4 8,7 17,7 17,8 11 6 24 13 W 1020,3 47 22 0,0
19.05.2017 07:00:00 8,4 7,3 7,4 17,9 17,8 9 5 19 11 W 1019,6 40 14 0,0
19.05.2017 06:00:00 8,1 6,9 7,6 18,1 17,8 12 6 22 12 W 1019,2 60 0 0,0
19.05.2017 05:00:00 8,1 6,9 7,6 18,4 17,8 15 8 25 14 WNW 1019,2 60 0 0,0
19.05.2017 04:00:00 8,2 7,0 7,8 18,6 17,8 16 9 25 13 W 1018,8 60 0 0,0
19.05.2017 03:00:00 8,8 7,6 8,2 18,9 17,8 12 6 19 10 W 1019,1 60 0 0,0
19.05.2017 02:00:00 9,2 8,0 9,0 19,1 17,8 9 5 19 11 W 1019,5 60 0 0,0
19.05.2017 01:00:00 9,3 7,9 8,8 19,3 17,8 14 7 26 14 W 1019,9 60 0 0,2
19.05.2017 00:00:00 9,4 8,2 9,0 19,7 17,7 18 10 29 16 WNW 1020,3 31 0 0,4
18.05.2017 23:00:00 9,7 8,3 9,2 20,0 17,7 21 11 45 25 W 1020,1 27 0 0,6
18.05.2017 22:00:00 10,1 8,9 9,6 20,4 17,8 21 11 40 21 W 1019,6 17 0 2,0
18.05.2017 21:00:00 10,4 9,5 9,9 20,7 17,7 15 8 34 18 W 1019,0 7 0 4,4
18.05.2017 20:00:00 10,5 8,9 9,9 21,0 17,7 24 13 42 23 WNW 1018,8 8 0 4,3
18.05.2017 19:00:00 11,6 10,7 11,4 21,4 17,7 23 13 46 25 W 1017,5 7 0 2,0
18.05.2017 18:00:00 11,7 10,6 11,4 21,7 17,7 23 12 48 26 WNW 1017,2 6 0 2,4
18.05.2017 17:00:00 12,3 10,9 11,8 21,9 17,7 27 15 58 31 W 1016,2 25 0 0,0
18.05.2017 16:00:00 12,5 11,2 12,2 21,9 17,7 37 20 64 34 WNW 1015,0 14 0 5,7
18.05.2017 15:00:00 19,9 14,5 19,0 21,8 17,7 11 6 30 16 WNW 1012,4 45 0 0,0
18.05.2017 14:00:00 21,2 13,4 21,8 21,6 17,7 21 11 35 19 E 1011,7 39 0 0,0
18.05.2017 13:00:00 22,1 13,7 22,9 21,3 17,6 23 12 38 21 E 1011,6 31 18 0,0
18.05.2017 12:00:00 21,3 14,9 22,3 21,0 17,6 21 11 37 20 E 1011,9 26 18 0,0
18.05.2017 11:00:00 20,0 14,1 22,3 20,8 17,6 27 15 42 23 E 1012,6 29 50 0,0

tt = Température de l'air
td = dewpoint
tt 5cm = Température de l'air 5cm
tt -20cm = Température de l'air -20cm
tt -100cm = Température de l'air -100cm
ff = Vitesse du vent
fx = gusts
dd = Direction du vent
ppp = reduced air pressure
vv = visibility
sd = Ensoleillement
rr = Quantités de précipitations

stations d'obs. à proximité